Location: DarkSkies Observatory
(42.5924°N, 71.9747°W)
Time: 20:47:55
(UTC-04:00)

Envisat - Visible Passes

Search period start: 24 April 2018 00:00
Search period end: 04 May 2018 00:00
Orbit: 764 x 766 km, 98.2° (Epoch: 24 April)

Date Brightness Start Highest point End Pass type
(mag) Time Alt. Az. Time Alt. Az. Time Alt. Az.
24 Apr 5.7 21:37:23 10° WSW 21:39:57 14° W 21:42:31 10° WNW visible
25 Apr 4.8 20:58:26 10° SSW 21:02:52 30° W 21:07:20 10° NW visible
26 Apr 3.4 20:20:57 10° S 20:25:59 67° WSW 20:31:04 10° NNW visible
27 Apr 5.6 21:25:19 10° SW 21:28:40 18° W 21:32:03 10° NW visible
28 Apr 4.4 20:46:57 10° SSW 20:51:39 38° W 20:56:23 10° NNW visible
29 Apr 3.1 20:09:45 10° SSE 20:14:49 84° WSW 20:19:56 10° NNW visible
30 Apr 5.3 21:13:31 10° SW 21:17:25 22° W 21:21:20 10° NW visible
01 May 4.0 20:35:34 10° S 20:40:27 48° W 20:45:22 10° NNW visible
02 May 5.8 21:41:10 10° WSW 21:43:17 12° W 21:45:23 10° WNW visible
03 May 5.0 21:01:52 10° SSW 21:06:10 28° W 21:10:31 10° NW visible
